CW4611 Weather Reports


Display with metric or nautical units.
time (UTC)temp
F
wind
direction
speed
MPH
gust
MPH
rain 1hr
in
rain 24hr
in
rain mn
in
humidity
%
barometer
mb
20171125021105 37 341 0.0 0.0 0.00 0.00 0.00 70 1021.3
20171125020605 38 341 0.0 0.0 0.00 0.00 0.00 70 1021.3
20171125020106 38 341 0.0 0.0 0.00 0.00 0.00 71 1021.3
20171125015605 38 341 0.0 0.0 0.00 0.00 0.00 71 1021.3
20171125015105 38 341 0.0 0.0 0.00 0.00 0.00 70 1021.3
20171125014606 38 341 0.0 3.0 0.00 0.00 0.00 70 1021.3
20171125014106 38 341 0.0 3.0 0.00 0.00 0.00 70 1021.3
20171125013605 38 341 1.0 3.0 0.00 0.00 0.00 70 1021.3
20171125013105 38 341 0.0 5.0 0.00 0.00 0.00 70 1020.8
20171125012605 38 341 1.0 6.0 0.00 0.00 0.00 70 1020.8
20171125012105 38 341 4.0 6.0 0.00 0.00 0.00 69 1020.8
20171125011605 39 338 3.0 6.0 0.00 0.00 0.00 68 1020.8
20171125010605 40 314 1.0 5.0 0.00 0.00 0.00 66 1020.6
20171125010106 40 304 0.0 0.0 0.00 0.00 0.00 66 1020.6
20171125005605 40 304 0.0 0.0 0.00 0.00 0.00 66 1021.2
20171125005105 41 304 0.0 0.0 0.00 0.00 0.00 65 1021.2
20171125004605 41 304 0.0 0.0 0.00 0.00 0.00 65 1021.2
20171125004105 41 303 0.0 0.0 0.00 0.00 0.00 65 1021.2
20171125003105 41 303 0.0 3.0 0.00 0.00 0.00 64 1021.0
20171125002606 42 303 0.0 3.0 0.00 0.00 0.00 64 1021.0
20171125002105 42 304 2.0 3.0 0.00 0.00 0.00 63 1021.2
20171125001606 43 284 2.0 3.0 0.00 0.00 0.00 62 1021.2
20171125001105 43 283 0.0 0.0 0.00 0.00 0.00 62 1021.2
20171124235605 44 283 0.0 3.0 0.00 0.00 0.00 61 1021.1
20171124235106 44 283 0.0 3.0 0.00 0.00 0.00 61 1021.2
20171124234605 44 283 0.0 5.0 0.00 0.00 0.00 60 1021.2
20171124234105 44 284 3.0 7.0 0.00 0.00 0.00 60 1020.9
20171124233605 44 217 2.0 7.0 0.00 0.00 0.00 60 1020.9
20171124233105 44 246 0.0 7.0 0.00 0.00 0.00 59 1020.9
20171124232105 45 256 3.0 5.0 0.00 0.00 0.00 58 1020.9
20171124231605 45 248 0.0 5.0 0.00 0.00 0.00 60 1020.9
20171124231105 45 247 1.0 7.0 0.00 0.00 0.00 58 1020.5
20171124230605 45 220 3.0 7.0 0.00 0.00 0.00 57 1020.4
20171124230106 45 261 2.0 5.0 0.00 0.00 0.00 57 1020.4
20171124225105 45 234 2.0 8.0 0.00 0.00 0.00 57 1020.6
20171124224605 45 217 1.0 9.0 0.00 0.00 0.00 57 1020.6
20171124224105 45 296 3.0 9.0 0.00 0.00 0.00 57 1020.6
20171124223605 45 255 4.0 13.0 0.00 0.00 0.00 56 1020.6
20171124223105 46 264 5.0 13.0 0.00 0.00 0.00 55 1020.6
20171124222105 46 298 2.0 12.0 0.00 0.00 0.00 55 1020.5
20171124221604 46 230 4.0 12.0 0.00 0.00 0.00 54 1020.5
20171124221105 46 232 2.0 18.0 0.00 0.00 0.00 54 1020.5
20171124220605 46 238 7.0 18.0 0.00 0.00 0.00 53 1020.5
20171124220105 47 299 3.0 10.0 0.00 0.00 0.00 53 1020.4
20171124215605 47 265 3.0 12.0 0.00 0.00 0.00 53 1020.1
20171124215105 47 232 3.0 14.0 0.00 0.00 0.00 53 1020.1
20171124214605 47 201 4.0 14.0 0.00 0.00 0.00 53 1020.1
20171124214105 47 211 3.0 10.0 0.00 0.00 0.00 53 1020.1
20171124213604 48 207 2.0 10.0 0.00 0.00 0.00 52 1019.5
20171124213105 48 208 5.0 9.0 0.00 0.00 0.00 52 1019.5
20171124212105 48 201 3.0 16.0 0.00 0.00 0.00 53 1019.5
20171124211605 47 239 5.0 16.0 0.00 0.00 0.00 54 1019.5
20171124210605 46 240 2.0 10.0 0.00 0.00 0.00 55 1019.9
20171124210105 46 209 3.0 12.0 0.00 0.00 0.00 55 1019.9
20171124205605 46 292 4.0 12.0 0.00 0.00 0.00 55 1019.9
20171124205104 46 276 4.0 10.0 0.00 0.00 0.00 56 1019.9
20171124204605 46 251 3.0 9.0 0.00 0.00 0.00 56 1019.9
20171124204105 46 242 3.0 9.0 0.00 0.00 0.00 56 1019.9
20171124203105 46 260 2.0 6.0 0.00 0.00 0.00 57 1019.9
20171124202605 46 162 0.0 3.0 0.00 0.00 0.00 57 1019.9
20171124202105 46 162 1.0 5.0 0.00 0.00 0.00 57 1019.9
20171124201604 46 190 1.0 5.0 0.00 0.00 0.00 57 1020.0
20171124201105 45 233 2.0 7.0 0.00 0.00 0.00 57 1020.0
20171124200604 45 229 1.0 9.0 0.00 0.00 0.00 58 1019.8
20171124200105 45 260 3.0 9.0 0.00 0.00 0.00 59 1019.8
20171124195105 45 198 3.0 6.0 0.00 0.00 0.00 59 1019.6
20171124194605 45 269 3.0 9.0 0.00 0.00 0.00 60 1019.0
20171124194105 45 246 3.0 9.0 0.00 0.00 0.00 60 1019.0
20171124193604 45 281 3.0 12.0 0.00 0.00 0.00 60 1019.0
20171124192605 45 285 5.0 15.0 0.00 0.00 0.00 58 1019.0
20171124191605 46 303 4.0 10.0 0.00 0.00 0.00 57 1019.0
20171124191104 46 308 3.0 12.0 0.00 0.00 0.00 57 1019.0
20171124190605 46 253 4.0 12.0 0.00 0.00 0.00 57 1019.0
20171124190106 46 271 5.0 14.0 0.00 0.00 0.00 56 1019.0
20171124185605 46 286 8.0 18.0 0.00 0.00 0.00 56 1019.5
20171124184605 46 216 4.0 20.0 0.00 0.00 0.00 56 1019.3
20171124184105 47 281 9.0 20.0 0.00 0.00 0.00 56 1019.3
20171124183604 47 248 6.0 17.0 0.00 0.00 0.00 55 1019.3
20171124183105 47 252 5.0 20.0 0.00 0.00 0.00 56 1019.5
20171124182605 47 281 7.0 20.0 0.00 0.00 0.00 55 1018.7
20171124182105 47 273 6.0 20.0 0.00 0.00 0.00 55 1018.7
20171124181604 48 294 7.0 20.0 0.00 0.00 0.00 54 1018.7
20171124181105 49 272 8.0 14.0 0.00 0.00 0.00 53 1018.7
20171124180605 49 258 3.0 14.0 0.00 0.00 0.00 53 1018.7
20171124180105 49 238 3.0 14.0 0.00 0.00 0.00 52 1018.7
20171124175105 49 267 2.0 9.0 0.00 0.00 0.00 52 1018.7
20171124174605 50 262 2.0 7.0 0.00 0.00 0.00 52 1018.7
20171124174105 50 187 2.0 7.0 0.00 0.00 0.00 52 1018.7
20171124173604 50 187 2.0 13.0 0.00 0.00 0.00 53 1018.7
20171124173105 50 127 3.0 13.0 0.00 0.00 0.00 52 1018.8
20171124172605 50 166 4.0 10.0 0.00 0.00 0.00 53 1019.0
20171124172105 50 201 3.0 7.0 0.00 0.00 0.00 54 1019.0
20171124171605 49 173 3.0 7.0 0.00 0.00 0.00 55 1019.1
20171124171105 48 157 3.0 7.0 0.00 0.00 0.00 56 1019.1
20171124170605 47 157 3.0 6.0 0.00 0.00 0.00 58 1019.1
20171124170105 47 169 1.0 3.0 0.00 0.00 0.00 59 1019.1
20171124165105 45 155 4.0 7.0 0.00 0.00 0.00 60 1019.2
20171124164605 45 178 3.0 6.0 0.00 0.00 0.00 61 1019.2
20171124164105 44 218 2.0 6.0 0.00 0.00 0.00 62 1019.1
20171124163605 44 213 1.0 3.0 0.00 0.00 0.00 61 1019.0
20171124163105 44 200 0.0 6.0 0.00 0.00 0.00 61 1019.0
20171124162604 44 200 3.0 6.0 0.00 0.00 0.00 61 1019.0
20171124161604 44 140 2.0 5.0 0.00 0.00 0.00 60 1019.0
20171124161105 44 139 2.0 5.0 0.00 0.00 0.00 60 1019.0
20171124160605 44 284 2.0 5.0 0.00 0.00 0.00 60 1018.9
20171124155605 44 313 1.0 14.0 0.00 0.00 0.00 60 1018.8
20171124155105 43 336 3.0 14.0 0.00 0.00 0.00 60 1018.7
20171124154605 43 334 2.0 5.0 0.00 0.00 0.00 61 1018.3
20171124153604 43 229 5.0 10.0 0.00 0.00 0.00 60 1018.2
20171124153104 42 284 2.0 6.0 0.00 0.00 0.00 60 1018.2
20171124152605 42 231 0.0 2.0 0.00 0.00 0.00 60 1018.1
20171124152105 42 188 0.0 2.0 0.00 0.00 0.00 59 1018.1
20171124151607 42 188 0.0 3.0 0.00 0.00 0.00 59 1018.1
20171124151107 42 186 0.0 3.0 0.00 0.00 0.00 59 1017.9
20171124150607 42 189 1.0 5.0 0.00 0.00 0.00 59 1017.9
20171124150107 42 189 3.0 5.0 0.00 0.00 0.00 59 1017.8
20171124145107 42 348 0.0 0.0 0.00 0.00 0.00 59 1017.3
20171124144607 42 348 0.0 0.0 0.00 0.00 0.00 59 1017.3
20171124144107 42 348 0.0 0.0 0.00 0.00 0.00 60 1017.3
20171124143606 42 348 0.0 0.0 0.00 0.00 0.00 60 1017.3
20171124143107 41 348 0.0 0.0 0.00 0.00 0.00 60 1017.3
20171124142607 41 348 0.0 0.0 0.00 0.00 0.00 59 1017.3
20171124142107 41 348 0.0 0.0 0.00 0.00 0.00 59 1017.3
20171124141607 41 348 0.0 0.0 0.00 0.00 0.00 59 1017.3
20171124141107 41 348 0.0 0.0 0.00 0.00 0.00 59 1017.3
20171124140606 41 348 0.0 0.0 0.00 0.00 0.00 59 1017.3
20171124140107 41 348 0.0 0.0 0.00 0.00 0.00 59 1017.3
20171124135607 42 348 0.0 0.0 0.00 0.00 0.00 59 1017.3
20171124135107 42 348 0.0 0.0 0.00 0.00 0.00 59 1017.3
20171124134607 42 348 0.0 0.0 0.00 0.00 0.00 58 1017.3
20171124134107 42 348 0.0 0.0 0.00 0.00 0.00 58 1017.3
20171124133107 42 348 0.0 0.0 0.00 0.00 0.00 58 1017.3
20171124132607 42 348 0.0 0.0 0.00 0.00 0.00 57 1017.3
20171124132107 42 348 0.0 0.0 0.00 0.00 0.00 57 1017.3
20171124131607 42 348 0.0 0.0 0.00 0.00 0.00 57 1017.4
20171124131107 43 348 0.0 3.0 0.00 0.00 0.00 57 1017.4
20171124130608 43 348 1.0 3.0 0.00 0.00 0.00 57 1017.4
20171124130107 43 348 3.0 3.0 0.00 0.00 0.00 56 1017.4
20171124125607 43 348 0.0 3.0 0.00 0.00 0.00 56 1017.4
20171124124607 44 348 1.0 5.0 0.00 0.00 0.00 56 1017.4
20171124123107 44 349 2.0 3.0 0.00 0.00 0.00 54 1017.4
20171124122607 45 348 2.0 3.0 0.00 0.00 0.00 54 1017.5
20171124122107 45 349 2.0 3.0 0.00 0.00 0.00 54 1017.6
20171124121107 45 349 1.0 3.0 0.00 0.00 0.00 53 1017.6
20171124120607 45 349 0.0 0.0 0.00 0.00 0.00 53 1017.6
20171124120107 45 349 0.0 3.0 0.00 0.00 0.00 53 1017.6
20171124115606 45 349 0.0 3.0 0.00 0.00 0.00 53 1017.6
20171124114107 46 349 2.0 3.0 0.00 0.00 0.00 52 1017.7
20171124113607 46 349 0.0 3.0 0.00 0.00 0.00 51 1017.7
20171124113107 46 349 2.0 3.0 0.00 0.00 0.00 52 1017.7
20171124112607 47 349 2.0 3.0 0.00 0.00 0.00 52 1017.7
20171124112107 47 349 2.0 3.0 0.00 0.00 0.00 51 1017.7
20171124111607 47 349 1.0 3.0 0.00 0.00 0.00 51 1017.8
20171124111107 47 349 0.0 0.0 0.00 0.00 0.00 50 1018.0
20171124110607 47 349 0.0 0.0 0.00 0.00 0.00 50 1018.1
20171124105607 47 349 0.0 0.0 0.00 0.00 0.00 50 1018.3
20171124104607 47 349 0.0 0.0 0.00 0.00 0.00 51 1018.3
20171124104107 47 349 0.0 0.0 0.00 0.00 0.00 51 1018.3
20171124103607 47 349 0.0 0.0 0.00 0.00 0.00 50 1018.5
20171124103107 47 349 0.0 0.0 0.00 0.00 0.00 51 1018.6
20171124102607 47 349 0.0 3.0 0.00 0.00 0.00 52 1018.6
20171124102106 47 349 0.0 3.0 0.00 0.00 0.00 52 1018.6
20171124100107 47 349 0.0 5.0 0.00 0.00 0.00 52 1018.7
20171124095607 47 349 3.0 5.0 0.00 0.00 0.00 53 1018.7
20171124095107 47 349 2.0 5.0 0.00 0.00 0.00 52 1018.7
20171124094607 47 349 2.0 5.0 0.00 0.00 0.00 52 1018.7
20171124094107 47 350 4.0 5.0 0.00 0.00 0.00 53 1018.7
20171124093607 47 344 3.0 5.0 0.00 0.00 0.00 52 1019.0
20171124093107 47 345 3.0 3.0 0.00 0.00 0.00 52 1019.0
20171124092606 47 345 0.0 0.0 0.00 0.00 0.00 52 1019.3
20171124092106 47 345 0.0 0.0 0.00 0.00 0.00 52 1019.3
20171124091607 47 345 0.0 1.0 0.00 0.00 0.00 52 1019.3
20171124090607 47 345 0.0 3.0 0.00 0.00 0.00 53 1019.4
20171124090107 46 346 1.0 3.0 0.00 0.00 0.00 54 1019.4
20171124085607 46 346 2.0 3.0 0.00 0.00 0.00 53 1019.4
20171124085107 46 346 0.0 5.0 0.00 0.00 0.00 53 1019.4
20171124084607 46 346 2.0 5.0 0.00 0.00 0.00 54 1019.5
20171124084106 46 300 2.0 5.0 0.00 0.00 0.00 55 1019.4
20171124083607 46 237 0.0 3.0 0.00 0.00 0.00 54 1019.8
20171124083106 46 228 2.0 3.0 0.00 0.00 0.00 55 1020.0
20171124082607 46 227 0.0 6.0 0.00 0.00 0.00 55 1020.0
20171124082107 46 227 0.0 6.0 0.00 0.00 0.00 55 1020.5
20171124081606 45 233 2.0 6.0 0.00 0.00 0.00 55 1020.5
20171124081107 45 320 0.0 3.0 0.00 0.00 0.00 56 1020.5
20171124080606 45 321 0.0 3.0 0.00 0.00 0.00 56 1020.5
20171124075606 44 320 0.0 2.0 0.00 0.00 0.00 57 1020.5
20171124075107 44 321 0.0 3.0 0.00 0.00 0.00 56 1020.5
20171124074607 44 320 2.0 3.0 0.00 0.00 0.00 57 1020.5
20171124074107 44 321 0.0 1.0 0.00 0.00 0.00 58 1020.5
20171124073607 44 320 0.0 1.0 0.00 0.00 0.00 59 1020.5
20171124073107 43 320 0.0 0.0 0.00 0.00 0.00 58 1020.5
20171124072606 43 320 0.0 0.0 0.00 0.00 0.00 59 1020.5
20171124072107 43 320 0.0 0.0 0.00 0.00 0.00 61 1020.8
20171124071109 42 320 0.0 0.0 0.00 0.00 0.00 62 1020.8
20171124070607 42 320 0.0 0.0 0.00 0.00 0.00 63 1020.8
20171124070108 42 320 0.0 0.0 0.00 0.00 0.00 62 1020.8
20171124065107 42 320 0.0 0.0 0.00 0.00 0.00 65 1021.1
20171124064606 42 320 0.0 3.0 0.00 0.00 0.00 66 1021.1
20171124064106 42 320 0.0 3.0 0.00 0.00 0.00 65 1021.1
20171124063606 41 320 1.0 3.0 0.00 0.00 0.00 63 1021.5
20171124063106 41 320 1.0 3.0 0.00 0.00 0.00 64 1021.5
20171124062606 41 320 1.0 3.0 0.00 0.00 0.00 66 1021.5
20171124062107 41 320 2.0 3.0 0.00 0.00 0.00 65 1021.5
20171124061606 41 321 0.0 0.0 0.00 0.00 0.00 64 1021.5
20171124061107 41 321 0.0 0.0 0.00 0.00 0.00 65 1021.5
20171124060607 41 321 0.0 0.0 0.00 0.00 0.00 66 1021.5
20171124060107 41 321 0.0 0.0 0.00 0.00 0.00 65 1021.4
20171124055606 40 321 0.0 0.0 0.00 0.00 0.00 66 1021.3
20171124055107 40 321 0.0 0.0 0.00 0.00 0.00 66 1021.3
20171124054606 40 321 0.0 0.0 0.00 0.00 0.00 66 1021.3
20171124054106 40 321 0.0 0.0 0.00 0.00 0.00 66 1021.3
20171124053607 40 321 0.0 0.0 0.00 0.00 0.00 66 1021.3
20171124053107 40 321 0.0 0.0 0.00 0.00 0.00 66 1021.3
20171124052607 40 321 0.0 0.0 0.00 0.00 0.00 66 1021.3
20171124052106 40 321 0.0 3.0 0.00 0.00 0.00 66 1021.4
20171124051607 40 321 0.0 3.0 0.00 0.00 0.00 66 1021.4
20171124051106 40 321 1.0 3.0 0.00 0.00 0.00 66 1021.4
20171124050607 40 321 0.0 2.0 0.00 0.00 0.00 66 1021.4
20171124050106 41 321 0.0 3.0 0.00 0.00 0.00 65 1021.4
20171124045607 41 321 1.0 3.0 0.00 0.00 0.00 65 1021.4
20171124045107 41 321 0.0 5.0 0.00 0.00 0.00 66 1021.5
20171124044607 41 321 2.0 5.0 0.00 0.00 0.00 65 1021.5
20171124044106 41 355 1.0 3.0 0.00 0.00 0.00 65 1021.5
20171124043607 41 5 0.0 0.0 0.00 0.00 0.00 66 1021.7
20171124043107 41 5 0.0 5.0 0.00 0.00 0.00 66 1021.7
20171124042607 41 9 1.0 5.0 0.00 0.00 0.00 66 1021.7
20171124042106 41 5 0.0 5.0 0.00 0.00 0.00 65 1021.9
20171124041106 41 5 0.0 0.0 0.00 0.00 0.00 65 1021.9
20171124040606 42 5 0.0 3.0 0.00 0.00 0.00 65 1022.4
20171124040107 42 5 0.0 5.0 0.00 0.00 0.00 64 1022.4
20171124035106 43 5 0.0 3.0 0.00 0.00 0.00 62 1022.4
20171124034606 43 5 2.0 3.0 0.00 0.00 0.00 61 1022.4
20171124034107 43 5 0.0 7.0 0.00 0.00 0.00 61 1022.5
20171124033607 44 9 2.0 7.0 0.00 0.00 0.00 61 1022.3
20171124033106 44 32 0.0 6.0 0.00 0.00 0.00 60 1022.4
20171124032606 44 32 1.0 6.0 0.00 0.00 0.00 59 1022.3
20171124032106 44 28 2.0 5.0 0.00 0.00 0.00 59 1022.3
20171124031606 44 53 1.0 5.0 0.00 0.00 0.00 58 1022.6
20171124031106 45 52 2.0 5.0 0.00 0.00 0.00 58 1022.6
20171124030606 45 16 2.0 5.0 0.00 0.00 0.00 58 1022.6
20171124030107 45 44 0.0 7.0 0.00 0.00 0.00 57 1022.8
20171124025607 45 44 0.0 7.0 0.00 0.00 0.00 56 1022.8
20171124025106 45 48 4.0 6.0 0.00 0.00 0.00 57 1022.8
20171124024607 45 74 2.0 5.0 0.00 0.00 0.00 56 1023.0
20171124024107 45 46 0.0 3.0 0.00 0.00 0.00 57 1023.0
20171124023606 45 46 2.0 3.0 0.00 0.00 0.00 56 1023.0
20171124023106 46 60 2.0 3.0 0.00 0.00 0.00 55 1023.0
20171124022606 46 61 0.0 3.0 0.00 0.00 0.00 55 1023.1
20171124022107 46 61 1.0 7.0 0.00 0.00 0.00 55 1023.1
20171124021606 46 62 4.0 7.0 0.00 0.00 0.00 55 1023.1